Location: Asheville, NC
(35.6000°N, 82.5500°W)
Time: 17:29:21
(UTC-04:00)

Vanguard 2 Rocket - Pass Details

Date: 14 December 2017
Orbit: 554 x 3327 km, 32.9° (Epoch: 20 July)

Event Time Altitude Azimuth Distance (km) Brightness Sun altitude
Rises 21:02:45 0° 260° (W) 5,275 11.5 -44.7°
Reaches altitude 10° 21:05:39 10° 260° (W) 4,579 11.0 -45.3°
Enters shadow 21:18:51 79° 212° (SSW) 2,903 9.1 -48.0°
